Regional Weather Roundup
Issued by NWS Sioux Falls, SD

Home | Current Version | Previous Version | Graphics & Text | Print | Product List | Glossary On
Versions: 1 2 3 4 5 6 7 8 9 10 11 12 13 14 15 16 17 18 19 20 21 22 23 24 25 26 27 28 29 30 31 32 33 34 35 36 37 38 39 40 41 42 43 44 45 46 47 48 49 50
000
ASUS43 KFSD 300310
RWRFSD

WEATHER ROUNDUP FOR SE SOUTH DAKOTA/SW MINNESOTA/NW IOWA
NATIONAL WEATHER SERVICE SIOUX FALLS SD
1000 PM CDT THU SEP 29 2016

NOTE: "FAIR" INDICATES FEW OR NO CLOUDS BELOW 12,000 FEET WITH NO
SIGNIFICANT WEATHER AND OR OBSTRUCTIONS TO VISIBILITY.


SDZ038>040-050-052>070-300400-
SOUTHEAST SOUTH DAKOTA

CITY           SKY/WX    TMP DP  RH WIND       PRES   REMARKS
BROOKINGS      CLEAR     53  47  79 SE6       30.36S
CHAMBERLAIN    CLEAR     54  48  81 SE8       30.31R
HURON          CLEAR     53  46  77 SE7       30.32F
MADISON        FAIR      46  46 100 E5        30.36S
MITCHELL       CLEAR     52  45  77 SE6       30.34S
SIOUX FALLS    CLEAR     53  47  79 E3        30.36R
WINNER         FAIR      53  45  74 SE12      30.29R
YANKTON        CLEAR     54  46  76 E3        30.33S
$$

MNZ071-072-080-081-089-090-097-098-300400-
SOUTHWEST MINNESOTA

CITY           SKY/WX    TMP DP  RH WIND       PRES   REMARKS
FAIRMONT       CLEAR     52  47  83 CALM      30.38S
JACKSON        CLEAR     46  43  87 CALM      30.38S
LUVERNE        CLEAR     50  45  81 CALM      30.37S
MARSHALL       CLEAR     51  47  86 CALM      30.38R
MONTEVIDEO     CLEAR     48  45  87 SE5       30.40R
PIPESTONE      CLEAR     54  46  76 CALM      30.37S
REDWOOD FALLS  CLEAR     55  47  74 E6        30.38S
TRACY          CLEAR     53  48  83 SE5       30.38S
WINDOM         CLEAR     52  46  82 CALM      30.38S
WORTHINGTON    CLEAR     49  46  90 E5        30.38S
$$

IAZ001>003-012>014-020>022-031-032-NEZ013-014-SDZ071-300400-
NORTHWEST IOWA

CITY           SKY/WX    TMP DP  RH WIND       PRES   REMARKS
CHEROKEE       CLEAR     51  48  90 CALM      30.36S
DENISON        CLEAR     50  48  93 CALM      30.33S
ESTHERVILLE    CLEAR     46  45  96 N5        30.37S
LE MARS        CLEAR     61  46  59 E9        30.36R
SHELDON        CLEAR     48  46  93 CALM      30.36R
SIOUX CITY     CLEAR     57  47  69 E6        30.35R
SPENCER        CLEAR     51  46  83 NE5       30.37R
STORM LAKE     CLEAR     55  48  76 NE8       30.36S
$$

ABBREVIATIONS USED IN REMARKS
   TC - TEMPERATURE IN CELSIUS
  WCI - WIND CHILL INDEX
   HX - HEAT INDEX
  VSB - VISIBILITY





USA.gov is the U.S. government's official web portal to all federal, state and local government web resources and services.